Weather History for Le Mars, IA

Change the Weather History Date:

Sunday, January 5, 2014

  Actual Average Record
Temperature  
Mean Temperature -5 °F -  
Max Temperature 3 °F 25 °F 64 °F (2012)
Min Temperature -13 °F 4 °F -23 °F (1970)
Degree Days  
Heating Degree Days 70    
Moisture  
Dew Point -13 °F    
Average Humidity 64    
Maximum Humidity 72    
Minimum Humidity 47    
Precipitation  
Precipitation 0.00 in - - ()
Sea Level Pressure  
Sea Level Pressure 30.42 in    
Wind  
Wind Speed 15 mph (NNW)    
Max Wind Speed 28 mph    
Max Gust Speed 37 mph    
Visibility 10 miles    
Events Snow    
Averages and records for this station are not official NWS values.
T = Trace of Precipitation, MM = Missing Value Source: NWS Daily Summary

Daily Weather History Graph

Daily Weather History Graph

Search for Another Location

Airport:

Trip Planner

Search our weather history database for the weather conditions in past years. The results will help you decide how hot, cold, wet, or windy it might be!

Date:

Astronomy

Jan. 05, 2014 Rise Set
Actual Time 7:55 AM CST 5:05 PM CST
Civil Twilight 7:23 AM CST 5:37 PM CST
Nautical Twilight 6:48 AM CST 6:12 PM CST
Astronomical Twilight 6:13 AM CST 6:46 PM CST
Moon 10:30 AM CST (1/5) 10:42 PM CST (1/5)
Length of Visible Light 10h 13m
Length of Day
9h 09m
Waxing Crescent, 25% of the Moon is Illuminated
Jan 5
Waxing Crescent
Jan 7
First Quarter
Jan 15
Full
Jan 23
Last Quarter
Jan 30
New

Hourly Weather History & Observations

Time (CST) Temp. Windchill Dew Point Humidity Pressure Visibility Wind Dir Wind Speed Gust Speed Precip Events Conditions
12:15 AM 3.2 °F -14.6 °F -4.0 °F 72% 30.29 in 10.0 mi North 13.8 mph - N/A   Unknown
12:35 AM 3.2 °F -14.6 °F -4.0 °F 72% 30.29 in 10.0 mi North 13.8 mph - N/A   Unknown
12:55 AM 3.2 °F -13.9 °F -5.8 °F 66% 30.30 in 10.0 mi North 12.7 mph 18.4 mph N/A   Unknown
1:15 AM 1.4 °F -15.3 °F -5.8 °F 72% 30.31 in 10.0 mi NNW 11.5 mph 18.4 mph N/A   Unknown
1:35 AM 1.4 °F -16.1 °F -5.8 °F 72% 30.31 in 10.0 mi North 12.7 mph - N/A   Unknown
1:55 AM 1.4 °F -15.3 °F -5.8 °F 72% 30.32 in 10.0 mi NNW 11.5 mph - N/A   Unknown
2:15 AM 1.4 °F -17.6 °F -7.6 °F 66% 30.32 in 10.0 mi NNW 15.0 mph 21.9 mph N/A   Unknown
2:35 AM 1.4 °F -17.6 °F -7.6 °F 66% 30.32 in 10.0 mi North 15.0 mph 25.3 mph N/A   Unknown
2:55 AM 1.4 °F -16.9 °F -7.6 °F 66% 30.32 in - NNW 13.8 mph 20.7 mph N/A   Unknown
3:15 AM 1.4 °F -16.1 °F -7.6 °F 66% 30.33 in 10.0 mi North 12.7 mph 20.7 mph N/A   Unknown
3:35 AM -0.4 °F -17.6 °F -7.6 °F 72% 30.33 in 10.0 mi NNW 11.5 mph 20.7 mph N/A   Unknown
3:55 AM -0.4 °F - -9.4 °F 66% 30.34 in 10.0 mi North - - N/A   Unknown
4:15 AM -0.4 °F -18.4 °F -9.4 °F 66% 30.34 in 10.0 mi North 12.7 mph - N/A   Unknown
4:35 AM -0.4 °F -16.7 °F -9.4 °F 66% 30.34 in 10.0 mi NNW 10.4 mph - N/A   Unknown
4:55 AM -2.2 °F -22.2 °F -11.2 °F 66% 30.35 in 10.0 mi North 15.0 mph 20.7 mph N/A   Unknown
5:15 AM -2.2 °F -21.5 °F -11.2 °F 66% 30.35 in 10.0 mi North 13.8 mph 21.9 mph N/A   Unknown
5:35 AM -2.2 °F -19.9 °F -11.2 °F 66% 30.37 in 10.0 mi NNW 11.5 mph 17.3 mph N/A   Unknown
5:55 AM -2.2 °F -19.9 °F -11.2 °F 66% 30.38 in 10.0 mi NNW 11.5 mph - N/A   Unknown
6:15 AM -4.0 °F -22.1 °F -13.0 °F 65% 30.38 in 10.0 mi NNW 11.5 mph - N/A   Unknown
6:35 AM -4.0 °F -17.8 °F -13.0 °F 65% 30.39 in 10.0 mi North 6.9 mph - N/A   Unknown
6:55 AM -4.0 °F -16.3 °F -13.0 °F 65% 30.39 in 10.0 mi North 5.8 mph - N/A   Unknown
7:15 AM -5.8 °F -18.4 °F -13.0 °F 71% 30.40 in 10.0 mi North 5.8 mph - N/A   Unknown
7:35 AM -5.8 °F -19.9 °F -13.0 °F 71% 30.40 in 10.0 mi North 6.9 mph - N/A   Unknown
7:55 AM -5.8 °F -21.2 °F -13.0 °F 71% 30.40 in 10.0 mi NNW 8.1 mph - N/A   Unknown
8:15 AM -5.8 °F -19.9 °F -13.0 °F 71% 30.41 in 10.0 mi North 6.9 mph - N/A   Unknown
8:35 AM -5.8 °F -18.4 °F -13.0 °F 71% 30.42 in 10.0 mi North 5.8 mph - N/A   Clear
8:55 AM -4.0 °F -16.3 °F -13.0 °F 65% 30.42 in 10.0 mi NNW 5.8 mph - N/A   Clear
9:15 AM -4.0 °F -23.0 °F -11.2 °F 71% 30.43 in 10.0 mi NNW 12.7 mph - N/A   Clear
9:35 AM -2.2 °F -22.2 °F -11.2 °F 66% 30.43 in 10.0 mi NNW 15.0 mph - N/A   Clear
9:55 AM -0.4 °F -21.7 °F -9.4 °F 66% 30.43 in 10.0 mi NNW 18.4 mph - N/A   Clear
10:15 AM -0.4 °F -20.5 °F -9.4 °F 66% 30.43 in 10.0 mi NNW 16.1 mph - N/A   Clear
10:35 AM 1.4 °F -18.2 °F -7.6 °F 66% 30.43 in 10.0 mi North 16.1 mph 21.9 mph N/A   Clear
10:55 AM 1.4 °F -19.9 °F -7.6 °F 66% 30.43 in 10.0 mi NNW 19.6 mph 26.5 mph N/A   Clear
11:15 AM 3.2 °F -15.3 °F -7.6 °F 61% 30.43 in 10.0 mi NNW 15.0 mph 25.3 mph N/A   Clear
11:35 AM 1.4 °F -19.4 °F -7.6 °F 66% 30.43 in 10.0 mi NNW 18.4 mph 25.3 mph N/A   Clear
11:55 AM 3.2 °F -18.1 °F -7.6 °F 61% 30.42 in 10.0 mi NW 20.7 mph 26.5 mph N/A   Scattered Clouds
12:15 PM 3.2 °F -18.6 °F -7.6 °F 61% 30.41 in 10.0 mi NNW 21.9 mph 31.1 mph N/A   Scattered Clouds
12:35 PM 3.2 °F -18.6 °F -7.6 °F 61% 30.41 in 10.0 mi NNW 21.9 mph 31.1 mph N/A   Partly Cloudy
12:55 PM 3.2 °F -20.7 °F -9.4 °F 56% 30.41 in - NW 27.6 mph 36.8 mph N/A   Scattered Clouds
1:15 PM 3.2 °F -19.5 °F -9.4 °F 56% 30.41 in 10.0 mi NW 24.2 mph 34.5 mph N/A   Scattered Clouds
1:35 PM 1.4 °F -22.3 °F -9.4 °F 61% 30.42 in 10.0 mi NNW 25.3 mph 33.4 mph N/A   Scattered Clouds
1:55 PM 1.4 °F -22.7 °F -11.2 °F 56% 30.41 in 10.0 mi NW 26.5 mph 33.4 mph N/A   Partly Cloudy
2:15 PM 1.4 °F -21.9 °F -11.2 °F 56% 30.41 in 10.0 mi NNW 24.2 mph 31.1 mph N/A   Clear
2:35 PM 1.4 °F -21.9 °F -11.2 °F 56% 30.41 in 10.0 mi NNW 24.2 mph - N/A   Clear
2:55 PM 1.4 °F -22.7 °F -13.0 °F 51% 30.41 in 10.0 mi NW 26.5 mph 34.5 mph N/A   Clear
3:15 PM 1.4 °F -21.9 °F -14.8 °F 47% 30.42 in 10.0 mi NNW 24.2 mph 31.1 mph N/A   Clear
3:35 PM -0.4 °F -23.3 °F -14.8 °F 51% 30.43 in 10.0 mi NNW 21.9 mph 31.1 mph N/A   Clear
3:55 PM -0.4 °F -24.3 °F -13.0 °F 55% 30.43 in 10.0 mi NW 24.2 mph 32.2 mph N/A   Clear
4:15 PM -2.2 °F -25.7 °F -13.0 °F 60% 30.45 in 10.0 mi NNW 21.9 mph 31.1 mph N/A   Scattered Clouds
4:35 PM -4.0 °F -29.6 °F -14.8 °F 60% 30.46 in 9.0 mi NNW 25.3 mph 32.2 mph N/A   Partly Cloudy
4:55 PM -4.0 °F -27.6 °F -16.6 °F 55% 30.47 in 10.0 mi NNW 20.7 mph 31.1 mph N/A   Partly Cloudy
5:15 PM -5.8 °F -29.4 °F -16.6 °F 60% 30.48 in 10.0 mi NNW 19.6 mph 26.5 mph N/A   Mostly Cloudy
5:35 PM -5.8 °F -30.5 °F -18.4 °F 55% 30.49 in 10.0 mi NNW 21.9 mph 31.1 mph N/A   Mostly Cloudy
5:55 PM -7.6 °F -30.5 °F -18.4 °F 59% 30.50 in 10.0 mi NW 17.3 mph 27.6 mph N/A   Unknown
6:15 PM -7.6 °F -29.1 °F -18.4 °F 59% 30.50 in 10.0 mi NNW 15.0 mph 27.6 mph N/A   Mostly Cloudy
6:35 PM -7.6 °F -31.7 °F -16.6 °F 65% 30.50 in 10.0 mi NW 19.6 mph 28.8 mph N/A Snow Light Snow
6:55 PM -9.4 °F -34.7 °F -18.4 °F 65% 30.51 in 10.0 mi NNW 20.7 mph 31.1 mph N/A   Overcast
7:15 PM -9.4 °F -35.8 °F -20.2 °F 59% 30.52 in 10.0 mi NW 23.0 mph 34.5 mph N/A   Unknown
7:35 PM -11.2 °F -35.8 °F -20.2 °F 64% 30.52 in 10.0 mi NW 18.4 mph 29.9 mph N/A   Unknown
7:55 PM -11.2 °F -38.2 °F -22.0 °F 59% 30.52 in 10.0 mi NW 23.0 mph - N/A   Unknown
8:15 PM -11.2 °F -32.9 °F -22.0 °F 59% 30.52 in 10.0 mi NW 13.8 mph 20.7 mph N/A   Unknown
8:35 PM -11.2 °F -33.7 °F -22.0 °F 59% 30.51 in 10.0 mi NW 15.0 mph - N/A   Unknown
8:55 PM -11.2 °F -35.2 °F -20.2 °F 64% 30.51 in 10.0 mi NW 17.3 mph - N/A   Unknown
9:15 PM -11.2 °F -34.4 °F -20.2 °F 64% 30.50 in 10.0 mi NW 16.1 mph - N/A   Unknown
9:35 PM -11.2 °F -31.1 °F -20.2 °F 64% 30.50 in 10.0 mi NW 11.5 mph 19.6 mph N/A   Mostly Cloudy
9:55 PM -13.0 °F -35.2 °F -20.2 °F 70% 30.50 in 10.0 mi NW 13.8 mph - N/A   Mostly Cloudy
10:15 PM -13.0 °F -34.3 °F -20.2 °F 70% 30.49 in 10.0 mi NW 12.7 mph - N/A   Partly Cloudy
10:35 PM -13.0 °F -34.3 °F -20.2 °F 70% 30.49 in 10.0 mi NW 12.7 mph 18.4 mph N/A   Unknown
10:55 PM -13.0 °F -33.4 °F -20.2 °F 70% 30.48 in 10.0 mi NW 11.5 mph 19.6 mph N/A   Unknown
11:15 PM -13.0 °F -34.3 °F -20.2 °F 70% 30.48 in 10.0 mi NW 12.7 mph 19.6 mph N/A   Overcast